Starlink 11388

operational
NORAD ID: 62092 Int'l Des: 2024-220 Owner: SPXS Country: US Constellation: starlink
LEOCIRCULAR

Starlink 11388について

説明を読み込み中...

リアルタイム位置

3D地球を読み込み中...

次回通過

高度履歴

Altitude vs Time

uPlot chart will show altitude changes over time

軌道要素

1 62092U 24220E 25258.39951310 .00601523 00000-0 43450-2 0 9997
2 62092 43.0010 19.7506 0004740 293.5433 66.4937 15.70926111 47381
Epoch: Sep 15, 2025 • Age: 12 hours

現在のステータス

高度 353.3 km
速度 7.70 km/s
衛星直下点 13.98°N, 68.74°E
打ち上げ日 Nov 25, 2024
運用期間 0.8 years
タイプ internet

技術仕様

分類 Payload
質量 960.00 kg
乾燥質量 910.00 kg
総質量 960.00 kg
長さ 0.30 m
直径 4.10 m
スパン 29.00 m
形状 Box + pan
製造者 SPXS
バスタイプ Starlink V2MD
フェーズステータス In Orbit
所有者/国 SPXS/US

大規模コンステレーション

Loading constellations...